1484373601.1,18038,6.5,70922.0,-15.49,-16.89,-16.89,0,*6B
1484373602.31,18039,6.5,70908.3,-15.49,-16.89,-16.89,0,*6A
1484373603.55,18040,6.5,70908.0,-15.51,-16.89,-16.89,0,*6D
1484373604.78,18041,6.5,70914.0,-15.49,-16.83,-16.83,0,*65
1484373606.0,18042,6.5,70908.0,-15.49,-16.75,-16.75,0,*66
1484373607.23,18043,6.5,70902.8,-15.49,-16.75,-16.83,0,*6E
1484373608.5,18044,6.5,70902.0,-15.51,-16.75,-16.69,0,*64
1484373609.79,18045,6.5,70916.8,-15.51,-16.69,-16.69,0,*68
1484373611.01,18046,6.5,70898.8,-15.49,-16.89,-16.83,0,*68
1484373612.23,18047,6.5,70912.5,-15.49,-16.89,-16.89,0,*63
1484373613.45,18048,6.5,70906.8,-15.49,-16.75,-16.75,0,*6C
1484373614.68,18049,6.5,70906.0,-15.49,-16.75,-16.83,0,*64
1484373615.92,18050,6.5,70900.3,-15.51,-16.89,-16.89,0,*6C
1484373617.16,18051,6.5,70902.5,-15.51,-16.89,-16.97,0,*62
1484373618.4,18052,6.5,70888.5,-15.51,-16.89,-16.89,0,*6E
1484373619.62,18053,6.5,70896.8,-15.49,-16.75,-16.83,0,*6F
1484373620.86,18054,6.5,70896.0,-15.51,-16.75,-16.89,0,*6B
1484373622.13,18055,6.5,70906.0,-15.51,-16.69,-16.83,0,*6D
1484373623.4,18056,6.5,70906.8,-15.51,-16.69,-16.83,0,*6E
1484373624.65,18057,6.5,70894.8,-15.51,-16.75,-16.75,0,*6B
1484373625.9,18058,6.5,70900.8,-15.51,-16.83,-16.75,0,*6D
1484373627.15,18059,6.5,70902.3,-15.51,-16.75,-16.83,0,*6C
1484373628.4,18060,6.5,70906.0,-15.51,-16.75,-16.83,0,*66
1484373629.65,18061,6.5,70906.8,-15.51,-16.75,-16.75,0,*6E
1484373630.87,18062,6.5,70918.8,-15.49,-16.75,-16.75,0,*64
1484373632.14,18063,6.5,70920.0,-15.51,-16.75,-16.69,0,*61
1484373633.37,18064,6.5,70934.3,-15.49,-16.75,-16.75,0,*62
1484373634.59,18065,6.5,70926.0,-15.49,-16.83,-16.83,0,*63
1484373635.87,18066,6.5,70912.0,-15.49,-17.03,-17.03,0,*60
1484373637.12,18067,6.5,70924.0,-15.49,-16.69,-16.75,0,*6C
1484373638.34,18068,6.5,70928.3,-15.49,-16.75,-16.75,0,*6E
1484373639.57,18069,6.5,70900.0,-15.49,-16.75,-16.75,0,*6F
1484373640.8,18070,6.5,70906.0,-15.49,-16.75,-16.75,0,*67
1484373642.02,18071,6.5,70908.8,-15.49,-16.83,-16.83,0,*66
1484373643.24,18072,6.5,70918.0,-15.49,-16.83,-16.83,0,*65
1484373644.51,18073,6.5,70890.8,-15.51,-16.69,-16.83,0,*69
1484373645.76,18074,6.5,70906.5,-15.51,-16.83,-16.75,0,*63
1484373647.01,18075,6.5,70896.0,-15.51,-16.75,-16.83,0,*62
1484373648.23,18076,6.5,70912.5,-15.49,-16.89,-16.75,0,*62
1484373649.45,18077,6.5,70900.5,-15.49,-16.89,-16.97,0,*6F
1484373650.69,18078,6.5,70914.8,-15.51,-16.83,-16.89,0,*6C
1484373651.92,18079,6.5,70906.0,-15.53,-16.83,-16.83,0,*65
1484373653.16,18080,6.5,70878.0,-15.51,-16.97,-16.97,0,*61
1484373654.46,18081,6.5,70870.0,-15.51,-17.03,-17.03,0,*60
1484373655.75,18082,6.5,70874.8,-15.51,-17.03,-17.17,0,*66
1484373656.97,18083,6.5,70870.0,-15.49,-16.97,-16.97,0,*6B
1484373658.21,18084,6.5,70850.8,-15.49,-16.97,-17.03,0,*60
1484373659.45,18085,6.5,70824.5,-15.51,-16.89,-16.89,0,*64
1484373660.67,18086,6.5,70852.0,-15.53,-16.83,-16.97,0,*60
1484373661.92,18087,6.5,70870.8,-15.51,-16.89,-16.97,0,*69
1484373663.16,18088,6.5,70850.8,-15.51,-16.97,-16.97,0,*69
1484373664.38,18089,6.5,70876.3,-15.53,-16.89,-16.97,0,*65
1484373665.62,18090,6.5,70888.5,-15.51,-16.89,-16.89,0,*60
1484373666.86,18091,6.5,70876.5,-15.51,-16.97,-16.97,0,*61
1484373668.11,18092,6.5,70880.5,-15.51,-16.83,-16.83,0,*62
1484373669.35,18093,6.5,70888.3,-15.51,-16.83,-16.83,0,*63
1484373670.6,18094,6.5,70896.8,-15.51,-16.75,-16.83,0,*6D
1484373671.87,18095,6.5,70908.5,-15.51,-16.69,-16.75,0,*68
1484373673.11,18096,6.5,70916.0,-15.51,-16.89,-16.89,0,*66
1484373674.35,18097,6.5,70912.3,-15.51,-16.89,-16.97,0,*68
1484373675.59,18098,6.5,70910.5,-15.51,-16.97,-16.97,0,*68
1484373676.86,18099,6.5,70916.5,-15.51,-16.89,-17.03,0,*6A
1484373678.13,18100,6.5,70926.8,-15.51,-16.97,-17.03,0,*64
1484373679.38,18101,6.5,70910.0,-15.53,-16.97,-17.03,0,*67
1484373680.65,18102,6.5,70910.3,-15.51,-16.89,-17.03,0,*69
1484373681.89,18103,6.5,70898.3,-15.51,-16.97,-16.97,0,*6B
1484373683.11,18104,6.5,70896.3,-15.53,-16.89,-16.89,0,*6E
1484373684.35,18105,6.5,70892.8,-15.51,-16.83,-16.89,0,*67
1484373685.58,18106,6.5,70900.5,-15.53,-16.75,-16.75,0,*6C
1484373686.83,18107,6.5,70900.5,-15.51,-16.83,-16.83,0,*6F
1484373688.07,18108,6.5,70906.0,-15.51,-16.75,-16.83,0,*69
1484373689.32,18109,6.5,70902.5,-15.51,-16.75,-16.83,0,*68
1484373690.57,18110,6.5,70904.0,-15.51,-16.83,-16.75,0,*60
1484373691.84,18111,6.5,70896.3,-15.51,-16.69,-16.75,0,*65
1484373693.07,18112,6.5,70892.0,-15.53,-16.75,-16.83,0,*60
1484373694.3,18113,6.5,70904.8,-15.53,-16.75,-16.75,0,*68
1484373695.55,18114,6.5,70902.3,-15.51,-16.83,-16.83,0,*6D
1484373696.77,18115,6.5,70908.8,-15.53,-16.89,-16.97,0,*61
1484373697.99,18116,6.5,70910.5,-15.53,-16.89,-16.97,0,*62
1484373699.26,18117,6.5,70914.5,-15.51,-16.97,-17.03,0,*62
1484373700.48,18118,6.5,70908.8,-15.53,-16.89,-16.97,0,*6C
1484373701.7,18119,6.5,70922.0,-15.53,-16.89,-16.89,0,*62
1484373702.92,18120,6.5,70894.5,-15.53,-16.97,-16.97,0,*68
1484373704.14,18121,6.5,70918.5,-15.53,-16.89,-16.97,0,*66
1484373705.36,18122,6.5,70914.5,-15.53,-16.97,-16.97,0,*6A
1484373706.6,18123,6.5,70918.8,-15.51,-16.89,-16.97,0,*66
1484373707.83,18124,6.5,70914.3,-15.53,-16.89,-16.97,0,*63
1484373709.05,18125,6.5,70926.0,-15.53,-16.83,-16.89,0,*67
1484373710.27,18126,6.5,70930.5,-15.53,-16.89,-16.97,0,*61
1484373711.51,18127,6.5,70924.5,-15.51,-16.89,-16.97,0,*62
1484373712.75,18128,6.5,70928.5,-15.51,-16.89,-16.89,0,*62
1484373714.0,18129,6.5,70934.3,-15.51,-16.75,-16.83,0,*6A
1484373715.25,18130,6.5,70940.5,-15.51,-16.75,-16.75,0,*6B
1484373716.47,18131,6.5,70944.0,-15.53,-16.83,-16.83,0,*68
1484373717.72,18132,6.5,70936.8,-15.51,-16.75,-16.83,0,*60
1484373718.95,18133,6.5,70934.8,-15.53,-16.75,-16.75,0,*6A
1484373720.2,18134,6.5,70938.5,-15.51,-16.75,-16.75,0,*6F
1484373721.44,18135,6.5,70938.8,-15.51,-16.83,-16.89,0,*64
1484373722.71,18136,6.5,70946.3,-15.51,-16.69,-16.83,0,*69
1484373723.96,18137,6.5,70940.8,-15.51,-16.83,-16.83,0,*6C
1484373725.18,18138,6.5,70952.0,-15.53,-16.83,-16.89,0,*6B
1484373726.43,18139,6.5,70962.5,-15.51,-16.75,-16.83,0,*6B
1484373727.7,18140,6.5,70960.8,-15.53,-16.69,-16.69,0,*6E
1484373728.95,18141,6.5,70962.5,-15.51,-16.75,-16.83,0,*64
1484373730.19,18142,6.5,70964.0,-15.51,-16.83,-16.83,0,*6E
1484373731.44,18143,6.5,70976.0,-15.51,-16.83,-16.83,0,*6F
1484373732.66,18144,6.5,70974.5,-15.53,-16.83,-16.89,0,*60
1484373733.91,18145,6.5,70954.3,-15.51,-16.75,-16.75,0,*69
1484373735.18,18146,6.5,70944.0,-15.51,-16.59,-16.69,0,*69
1484373736.45,18147,6.5,70910.8,-15.51,-16.69,-16.83,0,*6F
1484373737.7,18148,6.5,70914.8,-15.51,-16.83,-16.75,0,*6D
1484373738.95,18149,6.5,70910.5,-15.51,-16.75,-16.83,0,*6C
1484373740.2,18150,6.5,70918.3,-15.51,-16.75,-16.83,0,*64
1484373741.42,18151,6.5,70946.0,-15.53,-16.75,-16.83,0,*67
1484373742.66,18152,6.5,70958.5,-15.51,-16.75,-16.89,0,*6C
1484373743.91,18153,6.5,70942.0,-15.51,-16.75,-16.75,0,*6E
1484373745.16,18154,6.5,70942.5,-15.51,-16.75,-16.97,0,*65
1484373746.43,18155,6.5,70938.0,-15.51,-16.83,-17.03,0,*61
1484373747.67,18156,6.5,70934.5,-15.51,-16.97,-16.97,0,*6B
1484373748.94,18157,6.5,70938.5,-15.51,-16.89,-17.03,0,*69
1484373750.18,18158,6.5,70934.8,-15.51,-16.89,-16.89,0,*65
1484373751.42,18159,6.5,70940.0,-15.51,-16.89,-16.97,0,*6B
1484373752.64,18160,6.5,70936.3,-15.53,-16.89,-16.97,0,*63
1484373753.89,18161,6.5,70934.8,-15.51,-16.89,-16.83,0,*65
1484373755.13,18162,6.5,70928.8,-15.51,-16.89,-16.97,0,*63
1484373756.37,18163,6.5,70930.0,-15.51,-16.83,-16.89,0,*67
1484373757.61,18164,6.5,70928.3,-15.51,-16.83,-16.97,0,*6F
1484373758.83,18165,6.5,70932.8,-15.49,-16.83,-16.97,0,*67
1484373760.1,18166,6.5,70932.3,-15.51,-16.97,-17.03,0,*64
1484373761.35,18167,6.5,70946.8,-15.51,-16.75,-16.75,0,*69
1484373762.63,18168,6.5,70946.5,-15.51,-16.69,-16.75,0,*6B
1484373763.88,18169,6.5,70938.8,-15.51,-16.75,-16.75,0,*67
1484373765.13,18170,6.5,70940.0,-15.51,-16.75,-16.75,0,*6F
1484373766.37,18171,6.5,70944.3,-15.51,-16.75,-16.75,0,*6E
1484373767.63,18172,6.5,70950.5,-15.51,-16.83,-16.75,0,*64
1484373768.87,18173,6.5,70934.8,-15.51,-16.83,-16.89,0,*66
1484373770.11,18174,6.5,70938.3,-15.51,-16.75,-16.83,0,*62
1484373771.36,18175,6.5,70938.5,-15.51,-16.83,-16.83,0,*6A
1484373772.61,18176,6.5,70942.8,-15.51,-16.75,-16.75,0,*69
1484373773.84,18177,6.5,70942.3,-15.53,-16.75,-16.83,0,*63
1484373775.09,18178,6.5,70946.3,-15.51,-16.75,-16.75,0,*67
1484373776.33,18179,6.5,70952.0,-15.51,-16.75,-16.89,0,*65
1484373777.58,18180,6.5,70950.0,-15.51,-16.83,-16.83,0,*60
1484373778.83,18181,6.5,70952.3,-15.51,-16.75,-16.75,0,*61
1484373780.06,18182,6.5,70944.3,-15.51,-16.89,-16.89,0,*62
1484373781.32,18183,6.5,70946.5,-15.53,-16.69,-16.83,0,*65
1484373782.58,18184,6.5,70942.5,-15.51,-16.97,-17.03,0,*68
1484373783.88,18185,6.5,70956.0,-15.51,-17.11,-17.03,0,*66
1484373785.15,18186,6.5,70952.5,-15.53,-17.03,-17.11,0,*67
1484373786.45,18187,6.5,70950.5,-15.51,-17.03,-17.11,0,*64
1484373787.74,18188,6.5,70962.3,-15.51,-17.11,-17.11,0,*68
1484373789.03,18189,6.5,70948.8,-15.51,-17.25,-17.25,0,*69
1484373790.28,18190,6.5,70936.3,-15.53,-17.25,-17.31,0,*66
1484373791.49,18191,6.5,70920.3,-15.53,-17.31,-17.31,0,*62
1484373792.78,18192,6.5,70912.0,-15.51,-17.11,-17.17,0,*65
1484373794.0,18193,6.5,70934.3,-15.53,-16.89,-16.89,0,*60
1484373795.27,18194,6.5,70926.3,-15.53,-17.03,-17.11,0,*64
1484373796.55,18195,6.5,70934.3,-15.53,-17.11,-17.03,0,*65
1484373797.77,18196,6.5,70938.3,-15.53,-16.83,-16.83,0,*65
1484373799.0,18197,6.5,70922.5,-15.53,-16.97,-16.83,0,*61
1484373800.21,18198,6.5,70912.0,-15.53,-16.89,-16.89,0,*6B
1484373801.46,18199,6.5,70910.8,-15.57,-16.79,-16.79,0,*6E
1484373802.69,18200,6.5,70910.5,-15.53,-16.75,-16.75,0,*69
1484373803.92,18201,6.5,70914.3,-15.53,-16.59,-16.59,0,*68
1484373805.15,18202,6.5,70926.8,-15.53,-16.75,-16.75,0,*6B
1484373806.37,18203,6.5,70932.3,-15.53,-16.83,-16.83,0,*6A
1484373807.6,18204,6.5,70918.3,-15.53,-16.59,-16.59,0,*6D
1484373808.85,18205,6.5,70924.5,-15.53,-16.59,-16.69,0,*6F
1484373810.13,18206,6.5,70930.3,-15.53,-16.69,-16.69,0,*6F
1484373811.36,18207,6.5,70932.8,-15.53,-16.59,-16.59,0,*6E
1484373812.59,18208,6.5,70940.5,-15.53,-16.75,-16.75,0,*61
1484373813.82,18209,6.5,70920.5,-15.53,-16.75,-16.59,0,*6E
1484373815.05,18210,6.5,70948.0,-15.53,-16.75,-16.75,0,*68
1484373816.3,18211,6.5,70934.3,-15.53,-16.75,-16.69,0,*64
1484373817.52,18212,6.5,70944.8,-15.53,-16.83,-16.83,0,*6A
1484373818.75,18213,6.5,70950.3,-15.53,-16.83,-16.83,0,*6B
1484373819.98,18214,6.5,70942.3,-15.53,-16.75,-16.83,0,*65
1484373821.23,18215,6.5,70938.8,-15.53,-16.75,-16.69,0,*60
1484373822.5,18216,6.5,70948.0,-15.53,-16.69,-16.69,0,*6E
1484373823.79,18217,6.5,70948.3,-15.51,-16.69,-16.69,0,*6D
1484373825.05,18218,6.5,70952.3,-15.53,-16.69,-16.59,0,*63
1484373826.3,18219,6.5,70948.8,-15.53,-16.69,-16.83,0,*65
1484373827.55,18220,6.5,70954.8,-15.51,-16.59,-16.75,0,*67
1484373828.8,18221,6.5,70950.5,-15.53,-16.69,-16.59,0,*69
1484373830.07,18222,6.5,70950.0,-15.51,-16.59,-16.69,0,*68
1484373831.3,18223,6.5,70948.8,-15.53,-16.59,-16.59,0,*68
1484373832.57,18224,6.5,70936.8,-15.53,-16.69,-16.69,0,*6F
1484373833.85,18225,6.5,70914.3,-15.53,-16.69,-16.69,0,*6E
1484373835.1,18226,6.5,70914.0,-15.51,-16.75,-16.75,0,*6F
1484373836.33,18227,6.5,70894.5,-15.53,-16.75,-16.75,0,*6C
1484373837.6,18228,6.5,70908.0,-15.51,-16.69,-16.75,0,*6C
1484373838.87,18229,6.5,70902.3,-15.51,-16.69,-16.75,0,*6D
1484373840.17,18230,6.5,70912.3,-15.51,-16.69,-16.69,0,*68
1484373841.46,18231,6.5,70902.8,-15.51,-16.69,-16.69,0,*69
1484373842.73,18232,6.5,70892.3,-15.51,-16.59,-16.69,0,*69
1484373843.96,18233,6.5,70896.5,-15.53,-16.59,-16.59,0,*69
1484373845.25,18234,6.5,70906.5,-15.51,-16.69,-16.69,0,*6C
1484373846.52,18235,6.5,70906.8,-15.51,-16.75,-16.69,0,*60
1484373847.77,18236,6.5,70920.0,-15.51,-16.59,-16.59,0,*6E
1484373849.0,18237,6.5,70916.8,-15.53,-16.83,-16.83,0,*6D
1484373850.25,18238,6.5,70910.5,-15.51,-16.75,-16.75,0,*60
1484373851.5,18239,6.5,70914.5,-15.51,-16.75,-16.75,0,*61
1484373852.75,18240,6.5,70914.8,-15.51,-16.75,-16.75,0,*6F
1484373854.0,18241,6.5,70920.5,-15.51,-16.59,-16.59,0,*6E
1484373855.27,18242,6.5,70900.5,-15.51,-16.69,-16.75,0,*60
1484373856.51,18243,6.5,70886.8,-15.51,-16.89,-16.97,0,*63
1484373857.77,18244,6.5,70892.8,-15.53,-16.69,-16.75,0,*64
1484373859.02,18245,6.5,70910.8,-15.51,-16.75,-16.75,0,*6A
1484373860.25,18246,6.5,70916.5,-15.53,-16.59,-16.59,0,*6B
1484373861.48,18247,6.5,70912.5,-15.53,-16.75,-16.75,0,*6A
1484373862.75,18248,6.5,70932.3,-15.51,-16.69,-16.75,0,*6A
1484373864.02,18249,6.5,70930.5,-15.51,-16.69,-16.59,0,*65
1484373865.27,18250,6.5,70896.0,-15.51,-16.89,-16.83,0,*64
1484373866.51,18251,6.5,70914.0,-15.51,-16.89,-16.75,0,*6C
1484373867.77,18252,6.5,70914.3,-15.51,-16.75,-16.75,0,*6C
1484373869.0,18253,6.5,70910.5,-15.53,-16.59,-16.75,0,*61
1484373870.24,18254,6.5,70924.8,-15.51,-16.83,-16.75,0,*63
1484373871.49,18255,6.56,70914.5,-15.51,-16.83,-16.83,0,*6B
1484373872.74,18256,6.5,70910.0,-15.53,-16.75,-16.69,0,*67
1484373873.99,18257,6.5,70916.8,-15.51,-16.75,-16.75,0,*69
1484373875.21,18258,6.5,70918.8,-15.53,-16.83,-16.89,0,*6E
1484373876.43,18259,6.5,70916.3,-15.53,-16.89,-16.89,0,*65
1484373877.67,18260,6.5,70906.3,-15.51,-16.89,-16.97,0,*62
1484373878.89,18261,6.5,70908.5,-15.53,-16.89,-16.97,0,*61
1484373880.12,18262,6.5,70850.0,-15.53,-16.97,-16.83,0,*68
1484373881.36,18263,6.5,70858.8,-15.51,-16.89,-16.97,0,*61
1484373882.61,18264,6.5,70876.8,-15.53,-16.69,-16.75,0,*66
1484373883.85,18265,6.5,70882.0,-15.53,-16.55,-16.59,0,*66
1484373885.12,18266,6.5,70890.3,-15.53,-16.69,-16.69,0,*69
1484373886.39,18267,6.5,70908.3,-15.51,-16.69,-16.59,0,*69
1484373887.62,18268,6.5,70906.5,-15.53,-16.83,-16.83,0,*67
1484373888.87,18269,6.5,70898.8,-15.51,-16.75,-16.83,0,*6D
1484373890.12,18270,6.5,70902.8,-15.51,-16.75,-16.75,0,*6C
1484373891.39,18271,6.5,70896.5,-15.51,-16.69,-16.75,0,*60
1484373892.62,18272,6.5,70898.3,-15.53,-16.59,-16.59,0,*6C
1484373893.89,18273,6.5,70900.8,-15.53,-16.69,-16.69,0,*6D
1484373895.17,18274,6.5,70892.5,-15.51,-16.69,-16.59,0,*6B
1484373896.4,18275,6.5,70898.0,-15.53,-16.59,-16.59,0,*6B
1484373897.67,18276,6.5,70892.8,-15.51,-16.69,-16.59,0,*69
1484373898.96,18277,6.5,70892.0,-15.51,-16.69,-16.69,0,*6B
1484373900.26,18278,6.5,70902.0,-15.51,-16.69,-16.69,0,*64
1484373901.53,18279,6.5,70912.0,-15.51,-16.69,-16.75,0,*68
1484373902.78,18280,6.5,70920.0,-15.51,-16.75,-16.75,0,*63
1484373904.03,18281,6.5,70892.5,-15.51,-16.75,-16.75,0,*62
1484373905.27,18282,6.5,70908.8,-15.51,-16.89,-16.89,0,*61
1484373906.51,18283,6.5,70908.0,-15.51,-16.89,-16.89,0,*60
1484373907.74,18284,6.5,70932.0,-15.53,-16.83,-16.83,0,*65
1484373908.96,18285,6.5,70930.3,-15.53,-16.89,-16.83,0,*6E
1484373910.2,18286,6.5,70942.8,-15.51,-16.89,-16.89,0,*65
1484373911.47,18287,6.5,70940.0,-15.51,-16.59,-16.69,0,*67
1484373912.71,18288,6.5,70928.5,-15.51,-16.83,-16.89,0,*61
1484373913.93,18289,6.5,70944.5,-15.53,-16.75,-16.89,0,*6B
1484373915.18,18290,6.5,70944.8,-15.51,-16.75,-16.75,0,*62
1484373916.4,18291,6.5,70900.0,-15.53,-16.89,-16.97,0,*6E
1484373917.64,18292,6.5,70922.8,-15.51,-16.97,-16.89,0,*6F
1484373918.88,18293,6.5,70924.5,-15.51,-16.89,-16.97,0,*6E
1484373920.1,18294,6.5,70910.3,-15.53,-16.89,-16.97,0,*6B
1484373921.33,18295,6.5,70916.5,-15.53,-16.75,-16.75,0,*65
1484373922.61,18296,6.5,70916.0,-15.53,-16.69,-16.69,0,*66
1484373923.88,18297,6.5,70922.5,-15.53,-16.69,-16.69,0,*67
1484373925.11,18298,6.5,70936.3,-15.53,-16.59,-16.59,0,*68
1484373926.38,18299,6.5,70930.5,-15.51,-16.59,-16.69,0,*68
1484373927.63,18300,6.5,70924.3,-15.51,-16.59,-16.59,0,*6A
1484373928.92,18301,6.5,70922.8,-15.51,-16.69,-16.69,0,*6B
1484373930.22,18302,6.5,70920.8,-15.51,-16.69,-16.69,0,*68
1484373931.51,18303,6.5,70914.3,-15.51,-16.69,-16.69,0,*69
1484373932.76,18304,6.5,70914.0,-15.51,-16.75,-16.75,0,*6E
1484373934.01,18305,6.5,70922.0,-15.51,-16.75,-16.75,0,*6F
1484373935.24,18306,6.5,70928.0,-15.53,-16.75,-16.75,0,*6E
1484373936.48,18307,6.5,70890.5,-15.51,-16.89,-16.89,0,*6D
1484373937.73,18308,6.5,70898.3,-15.51,-16.75,-16.83,0,*6B
1484373938.98,18309,6.5,70906.0,-15.51,-16.83,-16.75,0,*6A
1484373940.23,18310,6.5,70900.0,-15.51,-16.83,-16.75,0,*62
1484373941.47,18311,6.5,70900.5,-15.51,-16.83,-16.83,0,*6A
1484373942.69,18312,6.5,70904.0,-15.53,-16.89,-16.89,0,*6B
1484373943.94,18313,6.5,70906.8,-15.51,-16.75,-16.83,0,*61
1484373945.18,18314,6.5,70908.8,-15.51,-16.83,-16.89,0,*65
1484373946.42,18315,6.5,70890.5,-15.51,-16.97,-16.89,0,*61
1484373947.67,18316,6.5,70906.0,-15.51,-16.83,-16.75,0,*64
1484373948.89,18317,6.5,70860.5,-15.49,-16.89,-16.97,0,*6A
1484373950.13,18318,6.5,70870.5,-15.51,-16.89,-16.97,0,*6C
1484373951.35,18319,6.5,70894.8,-15.53,-16.83,-16.83,0,*60
1484373952.6,18320,6.5,70860.5,-15.51,-16.83,-16.97,0,*6D
1484373953.87,18321,6.5,70862.8,-15.53,-17.03,-17.03,0,*6B
1484373955.1,18322,6.5,70880.3,-15.53,-16.75,-16.83,0,*61
1484373956.39,18323,6.5,70886.5,-15.51,-16.69,-16.69,0,*6B
1484373957.62,18324,6.5,70894.0,-15.53,-16.75,-16.75,0,*6E
1484373958.85,18325,6.5,70890.8,-15.53,-16.59,-16.75,0,*61
1484373960.13,18326,6.5,70890.3,-15.51,-16.69,-16.75,0,*63
1484373961.38,18327,6.5,70888.3,-15.53,-16.69,-16.75,0,*60
1484373962.65,18328,6.5,70908.5,-15.51,-16.69,-16.75,0,*6D
1484373963.9,18329,6.5,70918.5,-15.51,-16.75,-16.75,0,*61
1484373965.15,18330,6.5,70908.5,-15.51,-16.75,-16.83,0,*60
1484373966.4,18331,6.5,70912.0,-15.51,-16.83,-16.75,0,*61
1484373967.65,18332,6.5,70912.8,-15.51,-16.83,-16.83,0,*6B
1484373968.9,18333,6.5,70912.3,-15.51,-16.75,-16.75,0,*6A
1484373970.17,18334,6.5,70916.5,-15.51,-16.69,-16.75,0,*60
1484373971.42,18335,6.5,70916.0,-15.51,-16.83,-16.83,0,*6C
1484373972.67,18336,6.5,70924.3,-15.51,-16.75,-16.75,0,*6F
1484373973.92,18337,6.5,70914.5,-15.51,-16.59,-16.75,0,*60
1484373975.19,18338,6.5,70932.3,-15.51,-16.69,-16.59,0,*62
1484373976.44,18339,6.5,70888.3,-15.51,-16.75,-16.83,0,*69
1484373977.68,18340,6.5,70904.0,-15.51,-16.83,-16.83,0,*6E
1484373978.95,18341,6.5,70908.8,-15.51,-16.83,-16.69,0,*6B
1484373980.2,18342,6.5,70910.3,-15.51,-16.75,-16.75,0,*6C
1484373981.45,18343,6.5,70914.3,-15.51,-16.59,-16.59,0,*6D
1484373982.74,18344,6.5,70916.3,-15.51,-16.69,-16.69,0,*6A
1484373984.01,18345,6.5,70914.5,-15.51,-16.75,-16.69,0,*66
1484373985.27,18346,6.5,70922.3,-15.49,-16.69,-16.59,0,*62
1484373986.53,18347,6.5,70916.8,-15.51,-16.59,-16.69,0,*6A
1484373987.83,18348,6.5,70920.3,-15.51,-16.69,-16.69,0,*66
1484373989.12,18349,6.5,70916.5,-15.51,-16.69,-16.69,0,*67
1484373990.37,18350,6.5,70920.0,-15.49,-16.59,-16.69,0,*65
1484373991.62,18351,6.5,70918.8,-15.49,-16.69,-16.83,0,*63
1484373992.86,18352,6.5,70920.0,-15.51,-16.75,-16.75,0,*6D
1484373994.14,18353,6.5,70920.5,-15.51,-16.69,-16.75,0,*61
1484373995.39,18354,6.5,70926.5,-15.49,-16.69,-16.83,0,*66
1484373996.64,18355,6.5,70922.5,-15.49,-16.69,-16.75,0,*6E
1484373997.86,18356,6.5,70920.5,-15.49,-16.75,-16.83,0,*69
1484373999.13,18357,6.5,70922.3,-15.47,-16.55,-16.65,0,*6C
1484374000.38,18358,6.5,70916.0,-15.49,-16.59,-16.69,0,*6D
1484374001.6,18359,6.5,70918.8,-15.49,-16.75,-16.83,0,*66
1484374002.85,18360,6.5,70908.3,-15.49,-16.69,-16.75,0,*68
1484374004.07,18361,6.5,70910.8,-15.49,-16.75,-16.83,0,*6D
1484374005.3,18362,6.5,70900.0,-15.49,-16.75,-16.83,0,*6E
1484374006.55,18363,6.5,70912.0,-15.49,-16.69,-16.75,0,*6B
1484374007.8,18364,6.5,70920.5,-15.49,-16.69,-16.75,0,*6C
1484374009.02,18365,6.5,70914.3,-15.49,-16.83,-16.83,0,*60
1484374010.24,18366,6.5,70914.8,-15.49,-16.83,-16.83,0,*63
1484374011.54,18367,6.5,70920.8,-15.51,-16.69,-16.69,0,*6B
1484374012.79,18368,6.5,70918.3,-15.51,-16.59,-16.75,0,*6A
1484374014.06,18369,6.5,70922.3,-15.51,-16.59,-16.69,0,*66
1484374015.33,18370,6.5,70926.5,-15.51,-16.75,-16.69,0,*60
1484374016.58,18371,6.5,70940.5,-15.51,-16.75,-16.75,0,*6C
1484374017.82,18372,6.5,70926.3,-15.49,-16.59,-16.69,0,*65
1484374019.05,18373,6.5,70922.0,-15.49,-16.59,-16.59,0,*67
1484374020.28,18374,6.5,70928.3,-15.49,-16.59,-16.59,0,*60
1484374021.52,18375,6.5,70932.3,-15.49,-16.69,-16.59,0,*62
1484374022.8,18376,6.5,70944.8,-15.49,-16.69,-16.69,0,*62
1484374024.04,18377,6.5,70932.0,-15.49,-16.69,-16.83,0,*67
1484374025.27,18378,6.56,70912.0,-15.49,-16.83,-16.83,0,*6C
1484374026.52,18379,6.5,70922.5,-15.49,-16.69,-16.75,0,*60
1484374027.77,18380,6.5,70922.0,-15.49,-16.69,-16.59,0,*68
1484374028.99,18381,6.5,70940.8,-15.49,-16.59,-16.75,0,*64
1484374030.24,18382,6.5,70940.8,-15.49,-16.69,-16.59,0,*6A
1484374031.51,18383,6.5,70942.0,-15.47,-16.65,-16.55,0,*65
1484374032.74,18384,6.5,70938.0,-15.49,-16.59,-16.59,0,*6F
1484374034.01,18385,6.5,70924.3,-15.47,-16.51,-16.59,0,*68
1484374035.28,18386,6.5,70932.8,-15.49,-16.69,-16.69,0,*6D
1484374036.58,18387,6.5,70936.0,-15.47,-16.65,-16.69,0,*6E
1484374037.82,18388,6.5,70938.8,-15.49,-16.59,-16.69,0,*60
1484374039.07,18389,6.5,70934.0,-15.49,-16.69,-16.75,0,*6F
1484374040.37,18390,6.56,70946.0,-15.47,-16.65,-16.69,0,*68
1484374041.64,18391,6.5,70934.3,-15.47,-16.69,-16.79,0,*64
1484374042.93,18392,6.5,70942.0,-15.47,-16.69,-16.65,0,*6A
1484374044.18,18393,6.5,70926.3,-15.47,-16.79,-16.83,0,*62
1484374045.4,18394,6.5,70930.8,-15.49,-16.83,-16.83,0,*6E
1484374046.65,18395,6.5,70922.8,-15.49,-16.69,-16.75,0,*62
1484374047.93,18396,6.5,70930.3,-15.47,-16.69,-16.75,0,*6F
1484374049.2,18397,6.5,70942.0,-15.49,-16.69,-16.69,0,*6D
1484374050.47,18398,6.5,70940.3,-15.47,-16.55,-16.65,0,*6F
1484374051.72,18399,6.5,70932.0,-15.49,-16.69,-16.75,0,*6E
1484374052.94,18400,6.5,70940.3,-15.49,-16.83,-16.79,0,*61
1484374054.17,18401,6.5,70932.3,-15.49,-16.75,-16.83,0,*6C
1484374055.41,18402,6.5,70930.0,-15.49,-16.69,-16.83,0,*62
1484374056.64,18403,6.5,70926.8,-15.49,-16.75,-16.83,0,*6E
1484374057.86,18404,6.5,70914.3,-15.49,-16.75,-16.83,0,*69
1484374059.11,18405,6.5,70924.3,-15.49,-16.69,-16.83,0,*65
1484374060.35,18406,6.5,70924.0,-15.47,-16.79,-16.83,0,*69
1484374061.64,18407,6.5,70932.8,-15.47,-16.69,-16.69,0,*6D
1484374062.91,18408,6.5,70942.8,-15.47,-16.69,-16.79,0,*63
1484374064.21,18409,6.5,70936.8,-15.47,-16.65,-16.65,0,*63
1484374065.48,18410,6.5,70940.8,-15.47,-16.65,-16.79,0,*66
1484374066.73,18411,6.5,70938.8,-15.49,-16.69,-16.75,0,*69
1484374067.98,18412,6.5,70944.3,-15.49,-16.69,-16.75,0,*6A
1484374069.25,18413,6.5,70944.5,-15.49,-16.69,-16.69,0,*66
1484374070.52,18414,6.56,70940.0,-15.47,-16.79,-16.65,0,*62
1484374071.77,18415,6.5,70938.3,-15.49,-16.79,-16.69,0,*61
1484374073.01,18416,6.5,70946.8,-15.49,-16.75,-16.65,0,*62
1484374074.31,18417,6.5,70938.0,-15.47,-16.65,-16.69,0,*60
1484374075.56,18418,6.5,70936.8,-15.47,-16.79,-16.83,0,*66
1484374076.77,18419,6.5,70952.5,-15.49,-16.89,-16.89,0,*6C
1484374077.99,18420,6.5,70944.5,-15.49,-16.89,-16.89,0,*66
1484374079.26,18421,6.5,70920.5,-15.47,-16.69,-16.83,0,*6D
1484374080.55,18422,6.5,70926.0,-15.47,-16.69,-16.69,0,*6A
1484374081.78,18423,6.5,70922.0,-15.49,-16.75,-16.75,0,*65
1484374083.05,18424,6.5,70922.8,-15.49,-16.69,-16.69,0,*62
1484374084.32,18425,6.5,70928.5,-15.47,-16.69,-16.75,0,*60
1484374085.59,18426,6.5,70928.3,-15.47,-16.69,-16.79,0,*6F
1484374086.81,18427,6.5,70912.5,-15.49,-16.83,-16.83,0,*61
1484374088.09,18428,6.5,70912.5,-15.47,-16.65,-16.55,0,*63
1484374089.33,18429,6.5,70898.8,-15.47,-16.55,-16.55,0,*61
1484374090.61,18430,6.5,70920.0,-15.49,-16.65,-16.69,0,*6B
1484374091.88,18431,6.5,70912.3,-15.47,-16.65,-16.55,0,*6B
1484374093.15,18432,6.5,70922.0,-15.49,-16.69,-16.69,0,*65
1484374094.42,18433,6.5,70906.5,-15.49,-16.69,-16.69,0,*64
1484374095.69,18434,6.5,70912.5,-15.49,-16.69,-16.69,0,*63
1484374096.99,18435,6.5,70906.5,-15.47,-16.65,-16.65,0,*6C
1484374098.24,18436,6.5,70910.8,-15.49,-16.69,-16.75,0,*6C
1484374099.51,18437,6.56,70924.0,-15.47,-16.65,-16.55,0,*6D
1484374100.8,18438,6.5,70916.3,-15.47,-16.65,-16.65,0,*61
1484374102.05,18439,6.5,70910.8,-15.47,-16.79,-16.75,0,*6C
1484374103.35,18440,6.5,70918.5,-15.47,-16.65,-16.69,0,*62
1484374104.61,18441,6.5,70904.5,-15.45,-16.69,-16.69,0,*6D
1484374105.84,18442,6.5,70910.3,-15.49,-16.59,-16.59,0,*62
1484374107.11,18443,6.5,70908.5,-15.49,-16.69,-16.69,0,*63
1484374108.36,18444,6.5,70904.0,-15.49,-16.75,-16.69,0,*69